EW4276 Weather Reports


Display with metric or nautical units.
time (UTC)temp
F
wind
direction
speed
MPH
gust
MPH
rain 1hr
in
rain 24hr
in
rain mn
in
humidity
%
barometer
mb
20260902095327 76 174 1.0 4.0 0.00 0.00 0.00 77 1018.7
20260902094822 76 174 2.0 5.0 0.00 0.00 0.00 77 1018.7
20260902094313 76 175 3.0 5.0 0.00 0.00 0.00 77 1018.8
20260902093826 76 171 1.0 4.0 0.00 0.00 0.00 77 1018.8
20260902093318 76 179 1.0 4.0 0.00 0.00 0.00 77 1018.7
20260902092830 76 172 0.0 3.0 0.00 0.00 0.00 77 1018.9
20260902092321 76 171 0.0 2.0 0.00 0.00 0.00 77 1018.9
20260902091853 76 169 0.0 3.0 0.00 0.00 0.00 77 1018.9
20260902091343 76 168 1.0 3.0 0.00 0.00 0.00 76 1018.9
20260902090814 76 180 1.0 2.0 0.00 0.00 0.00 76 1018.8
20260902090329 76 131 1.0 2.0 0.00 0.00 0.00 75 1019.0
20260902085819 76 170 0.0 2.0 0.00 0.00 0.00 75 1018.9
20260902085331 77 172 0.0 2.0 0.00 0.00 0.00 75 1018.9
20260902084823 77 171 1.0 4.0 0.00 0.00 0.00 74 1018.8
20260902084316 77 178 2.0 6.0 0.00 0.00 0.00 75 1018.7
20260902083848 76 180 3.0 6.0 0.00 0.00 0.00 75 1018.7
20260902083317 76 174 2.0 4.0 0.00 0.00 0.00 75 1018.7
20260902082829 76 166 2.0 4.0 0.00 0.00 0.00 76 1018.8
20260902082321 76 171 2.0 4.0 0.00 0.00 0.00 76 1018.7
20260902081837 76 173 2.0 6.0 0.00 0.00 0.00 77 1018.7
20260902081327 76 180 4.0 6.0 0.00 0.00 0.00 77 1018.6
20260902080325 76 180 3.0 6.0 0.00 0.00 0.00 78 1018.6
20260902075814 76 176 3.0 6.0 0.00 0.00 0.00 77 1018.5
20260902075326 76 173 1.0 4.0 0.00 0.00 0.00 77 1018.6
20260902074818 76 165 1.0 4.0 0.00 0.00 0.00 77 1018.7
20260902074330 76 177 1.0 4.0 0.00 0.00 0.00 76 1018.6
20260902073821 77 163 0.0 3.0 0.00 0.00 0.00 76 1018.6
20260902073316 77 113 0.0 3.0 0.00 0.00 0.00 75 1018.6
20260902072829 77 169 0.0 2.0 0.00 0.00 0.00 75 1018.6
20260902072320 77 163 0.0 3.0 0.00 0.00 0.00 74 1018.5
20260902071852 77 20 0.0 3.0 0.00 0.00 0.00 73 1018.5
20260902071342 78 131 0.0 1.0 0.00 0.00 0.00 73 1018.4
20260902070833 78 167 0.0 1.0 0.00 0.00 0.00 72 1018.4
20260902070325 78 119 0.0 0.0 0.00 0.00 0.00 73 1018.3
20260902065814 78 119 0.0 0.0 0.00 0.00 0.00 72 1018.3
20260902064818 78 119 0.0 1.0 0.00 0.00 0.00 73 1018.4
20260902064314 77 119 0.0 0.0 0.00 0.00 0.00 73 1018.5
20260902063826 77 119 0.0 0.0 0.00 0.00 0.00 74 1018.6
20260902063317 77 119 0.0 0.0 0.00 0.00 0.00 74 1018.6
20260902062829 77 119 0.0 0.0 0.00 0.00 0.00 74 1018.7
20260902062321 77 65 0.0 0.0 0.00 0.00 0.00 74 1018.6
20260902061832 77 65 0.0 1.0 0.00 0.00 0.00 74 1018.7
20260902061324 77 67 0.0 1.0 0.00 0.00 0.00 73 1018.7
20260902060816 78 67 0.0 0.0 0.00 0.00 0.00 73 1018.8
20260902060332 77 71 0.0 0.0 0.00 0.00 0.00 72 1018.9
20260902055821 78 68 0.0 0.0 0.00 0.00 0.00 72 1019.0
20260902055315 77 68 0.0 0.0 0.00 0.00 0.00 72 1018.9
20260902054826 78 68 0.0 0.0 0.00 0.00 0.00 72 1018.9
20260902054318 78 68 0.0 0.0 0.00 0.00 0.00 71 1019.0
20260902053830 78 67 0.0 0.0 0.00 0.00 0.00 71 1019.0
20260902053343 78 67 0.0 0.0 0.00 0.00 0.00 71 1019.0
20260902052814 78 67 0.0 0.0 0.00 0.00 0.00 71 1019.0
20260902052326 79 67 0.0 0.0 0.00 0.00 0.00 71 1019.0
20260902051821 79 67 0.0 0.0 0.00 0.00 0.00 71 1019.0
20260902051313 79 67 0.0 0.0 0.00 0.00 0.00 71 1019.0
20260902050845 79 67 0.0 1.0 0.00 0.00 0.00 71 1018.9
20260902050316 78 67 0.0 2.0 0.00 0.00 0.00 71 1018.9
20260902045846 78 67 0.0 2.0 0.00 0.00 0.00 71 1019.0
20260902045317 78 94 0.0 1.0 0.00 0.00 0.00 72 1019.0
20260902044849 78 94 0.0 1.0 0.00 0.00 0.00 73 1019.0
20260902044319 77 94 0.0 1.0 0.00 0.00 0.00 73 1018.9
20260902043832 77 173 0.0 0.0 0.00 0.00 0.00 73 1018.9
20260902043324 78 173 0.0 0.0 0.00 0.00 0.00 72 1018.8
20260902042840 78 173 0.0 0.0 0.00 0.00 0.00 72 1018.7
20260902042331 78 172 0.0 2.0 0.00 0.00 0.00 73 1018.7
20260902041823 78 180 0.0 3.0 0.00 0.00 0.00 72 1018.6
20260902041316 78 165 0.0 1.0 0.00 0.00 0.00 71 1018.4
20260902040847 79 165 0.0 1.0 0.00 0.00 0.00 70 1018.3
20260902040338 79 62 0.0 0.0 0.00 0.00 0.00 70 1018.2
20260902035827 79 62 0.0 4.0 0.00 0.00 0.00 69 1018.1
20260902035319 79 48 0.0 4.0 0.00 0.00 0.00 69 1018.0
20260902034831 79 9 0.0 3.0 0.00 0.00 0.00 70 1017.9
20260902034323 78 301 0.0 0.0 0.00 0.00 0.00 71 1017.8
20260902033838 78 47 0.0 0.0 0.00 0.00 0.00 71 1017.7
20260902033330 78 130 0.0 0.0 0.00 0.00 0.00 72 1017.7
20260902032822 78 130 0.0 0.0 0.00 0.00 0.00 72 1017.7
20260902032314 78 130 0.0 0.0 0.00 0.00 0.00 71 1017.8
20260902031826 78 130 0.0 0.0 0.00 0.00 0.00 71 1017.7
20260902031318 78 130 0.0 0.0 0.00 0.00 0.00 71 1017.8
20260902030830 78 130 0.0 0.0 0.00 0.00 0.00 71 1017.8
20260902030321 78 130 0.0 0.0 0.00 0.00 0.00 71 1017.6
20260902025815 78 130 0.0 0.0 0.00 0.00 0.00 71 1017.6
20260902025348 79 130 0.0 0.0 0.00 0.00 0.00 71 1017.5
20260902024818 79 130 0.0 0.0 0.00 0.00 0.00 70 1017.4
20260902024331 79 130 0.0 0.0 0.00 0.00 0.00 70 1017.5
20260902023844 79 125 0.0 0.0 0.00 0.00 0.00 70 1017.6
20260902023314 80 123 0.0 0.0 0.00 0.00 0.00 70 1017.6
20260902022827 80 123 0.0 0.0 0.00 0.00 0.00 69 1017.6
20260902022319 80 101 0.0 0.0 0.00 0.00 0.00 69 1017.7
20260902021851 80 103 0.0 2.0 0.00 0.00 0.00 68 1017.9
20260902021342 80 111 0.0 3.0 0.00 0.00 0.00 68 1018.0
20260902020833 80 155 1.0 3.0 0.00 0.00 0.00 68 1017.9
20260902020329 80 153 1.0 5.0 0.00 0.00 0.00 68 1017.8
20260902015819 80 137 1.0 6.0 0.00 0.00 0.00 68 1017.9
20260902015331 80 147 1.0 5.0 0.00 0.00 0.00 68 1017.8
20260902014822 80 168 3.0 6.0 0.00 0.00 0.00 68 1017.7
20260902014314 80 138 2.0 6.0 0.00 0.00 0.00 68 1017.7
20260902013826 80 142 1.0 4.0 0.00 0.00 0.00 68 1017.8
20260902013319 80 40 1.0 4.0 0.00 0.00 0.00 68 1017.8
20260902012830 80 146 1.0 4.0 0.00 0.00 0.00 68 1017.7
20260902012325 81 136 0.0 5.0 0.00 0.00 0.00 68 1017.7
20260902011817 81 153 1.0 5.0 0.00 0.00 0.00 67 1017.5
20260902011330 81 167 1.0 5.0 0.00 0.00 0.00 67 1017.5
20260902010841 81 150 1.0 5.0 0.00 0.00 0.00 67 1017.5
20260902010329 82 132 1.0 11.0 0.00 0.00 0.00 66 1017.5
20260902005840 81 144 5.0 11.0 0.00 0.00 0.00 66 1017.2
20260902005330 81 65 2.0 7.0 0.00 0.00 0.00 67 1017.1
20260902004822 81 160 3.0 6.0 0.00 0.00 0.00 67 1017.1
20260902004313 81 13 2.0 8.0 0.00 0.00 0.00 67 1017.1
20260902003846 81 99 4.0 8.0 0.00 0.00 0.00 67 1017.0
20260902003321 81 80 1.0 4.0 0.00 0.00 0.00 68 1017.0
20260902002832 81 70 2.0 5.0 0.00 0.00 0.00 68 1017.0
20260902002325 82 103 2.0 7.0 0.00 0.00 0.00 67 1016.9
20260902001817 82 119 3.0 10.0 0.00 0.00 0.00 66 1016.9
20260902001328 82 137 3.0 17.0 0.00 0.00 0.00 66 1016.9
20260902000840 82 294 7.0 14.0 0.00 0.00 0.00 67 1016.8
20260902000331 82 360 4.0 11.0 0.00 0.00 0.00 68 1016.7
20260901235820 82 9 2.0 8.0 0.00 0.00 0.00 68 1016.7
20260901235332 82 246 3.0 8.0 0.00 0.00 0.00 69 1016.6
20260901234844 82 88 3.0 7.0 0.00 0.00 0.00 68 1016.6
20260901234318 82 129 1.0 3.0 0.00 0.00 0.00 69 1016.6
20260901233830 83 296 1.0 4.0 0.00 0.00 0.00 69 1016.7
20260901233322 83 58 1.0 5.0 0.00 0.00 0.00 68 1016.7
20260901232813 83 190 1.0 8.0 0.00 0.00 0.00 68 1016.8
20260901232346 83 144 3.0 8.0 0.00 0.00 0.00 67 1016.8
20260901231816 84 274 1.0 5.0 0.00 0.00 0.00 69 1016.8
20260901231328 84 49 1.0 3.0 0.00 0.00 0.00 68 1016.7
20260901230841 84 125 1.0 6.0 0.00 0.00 0.00 68 1016.7
20260901230332 84 132 2.0 6.0 0.00 0.00 0.00 67 1016.7
20260901225827 85 101 2.0 4.0 0.00 0.00 0.00 68 1016.7
20260901225319 85 149 2.0 5.0 0.00 0.00 0.00 68 1016.7
20260901224830 85 85 2.0 4.0 0.00 0.00 0.00 68 1016.7
20260901224322 85 109 1.0 6.0 0.00 0.00 0.00 68 1016.8
20260901223814 85 309 2.0 6.0 0.00 0.00 0.00 67 1016.7
20260901223347 85 35 3.0 8.0 0.00 0.00 0.00 68 1016.8
20260901222818 85 298 1.0 8.0 0.00 0.00 0.00 67 1016.8
20260901222330 85 292 2.0 4.0 0.00 0.00 0.00 67 1016.8
20260901221842 85 126 1.0 5.0 0.00 0.00 0.00 66 1016.8
20260901221353 85 103 1.0 6.0 0.00 0.00 0.00 65 1016.8
20260901220828 86 126 2.0 6.0 0.00 0.00 0.00 65 1016.8
20260901220320 86 132 2.0 8.0 0.00 0.00 0.00 65 1016.8
20260901215832 86 127 3.0 8.0 0.00 0.00 0.00 65 1016.8
20260901215323 86 246 2.0 7.0 0.00 0.00 0.00 66 1016.8
20260901214815 86 172 2.0 7.0 0.00 0.00 0.00 65 1016.8
20260901214347 87 144 2.0 9.0 0.00 0.00 0.00 65 1016.7
20260901213820 87 144 1.0 9.0 0.00 0.00 0.00 64 1016.7
20260901213332 88 135 2.0 7.0 0.00 0.00 0.00 65 1016.6
20260901212824 88 114 2.0 7.0 0.00 0.00 0.00 64 1016.6
20260901212320 88 303 2.0 10.0 0.00 0.00 0.00 64 1016.6
20260901211832 88 101 4.0 10.0 0.00 0.00 0.00 64 1016.7
20260901211324 88 237 3.0 8.0 0.00 0.00 0.00 65 1016.7
20260901210816 87 94 5.0 9.0 0.00 0.00 0.00 65 1016.8
20260901210328 87 161 3.0 9.0 0.00 0.00 0.00 65 1016.8
20260901205819 87 123 3.0 10.0 0.00 0.00 0.00 65 1016.7
20260901205332 87 306 4.0 11.0 0.00 0.00 0.00 64 1016.7
20260901204823 87 74 3.0 9.0 0.00 0.00 0.00 65 1016.7
20260901204319 87 108 3.0 8.0 0.00 0.00 0.00 65 1016.7
20260901203831 87 113 2.0 8.0 0.00 0.00 0.00 65 1016.7
20260901203323 87 143 3.0 12.0 0.00 0.00 0.00 64 1016.7
20260901202814 87 157 5.0 12.0 0.00 0.00 0.00 63 1016.7
20260901202327 88 67 3.0 10.0 0.00 0.00 0.00 62 1016.8
20260901201819 88 141 5.0 10.0 0.00 0.00 0.00 62 1016.7
20260901201331 88 211 4.0 9.0 0.00 0.00 0.00 62 1016.7
20260901200823 88 101 5.0 9.0 0.00 0.00 0.00 60 1016.7
20260901200319 89 76 4.0 11.0 0.00 0.00 0.00 60 1016.6
20260901195831 89 172 4.0 11.0 0.00 0.00 0.00 59 1016.6
20260901195322 89 145 3.0 13.0 0.00 0.00 0.00 59 1016.6
20260901194814 89 298 6.0 14.0 0.00 0.00 0.00 57 1016.7
20260901194326 90 81 6.0 14.0 0.00 0.00 0.00 57 1016.7
20260901193818 90 159 3.0 12.0 0.00 0.00 0.00 59 1016.9
20260901193330 90 244 4.0 12.0 0.00 0.00 0.00 57 1016.9
20260901192823 90 171 5.0 13.0 0.00 0.00 0.00 56 1017.0
20260901192318 90 360 4.0 13.0 0.00 0.00 0.00 57 1017.1
20260901191831 91 311 6.0 13.0 0.00 0.00 0.00 56 1017.1
20260901191322 91 311 4.0 12.0 0.00 0.00 0.00 58 1017.3
20260901190326 90 252 5.0 17.0 0.00 0.00 0.00 56 1017.4
20260901185816 91 40 6.0 11.0 0.00 0.00 0.00 56 1017.4
20260901185328 91 146 4.0 13.0 0.00 0.00 0.00 56 1017.5
20260901184819 91 163 5.0 13.0 0.00 0.00 0.00 56 1017.5
20260901184335 91 181 5.0 12.0 0.00 0.00 0.00 56 1017.5
20260901183827 91 241 6.0 17.0 0.00 0.00 0.00 56 1017.4
20260901183318 91 275 8.0 15.0 0.00 0.00 0.00 55 1017.6
20260901182850 91 360 5.0 16.0 0.00 0.00 0.00 56 1017.6
20260901182321 91 295 7.0 16.0 0.00 0.00 0.00 56 1017.7
20260901181812 91 89 5.0 16.0 0.00 0.00 0.00 57 1017.6
20260901181324 91 68 5.0 13.0 0.00 0.00 0.00 56 1017.8
20260901180816 90 155 9.0 14.0 0.00 0.00 0.00 58 1017.7
20260901180348 90 67 7.0 12.0 0.00 0.00 0.00 59 1017.7
20260901175818 88 107 4.0 9.0 0.00 0.00 0.00 63 1017.8
20260901175314 88 127 4.0 9.0 0.00 0.00 0.00 63 1017.8
20260901174826 89 163 4.0 11.0 0.00 0.00 0.00 61 1018.0
20260901174318 90 127 5.0 12.0 0.00 0.00 0.00 60 1018.0
20260901173830 90 180 5.0 12.0 0.00 0.00 0.00 60 1017.9
20260901173321 90 121 5.0 11.0 0.00 0.00 0.00 61 1017.8
20260901172813 89 104 3.0 15.0 0.00 0.00 0.00 63 1017.7
20260901172325 89 69 7.0 18.0 0.00 0.00 0.00 63 1017.6
20260901171838 89 126 7.0 18.0 0.00 0.00 0.00 61 1017.7
20260901171313 89 115 3.0 9.0 0.00 0.00 0.00 64 1017.8
20260901170825 89 157 4.0 9.0 0.00 0.00 0.00 61 1017.9
20260901170316 90 137 3.0 9.0 0.00 0.00 0.00 61 1017.8
20260901165828 90 103 6.0 9.0 0.00 0.00 0.00 61 1017.9
20260901165320 89 161 5.0 9.0 0.00 0.00 0.00 63 1018.0
20260901164832 88 148 2.0 6.0 0.00 0.00 0.00 66 1017.9
20260901164325 87 119 4.0 10.0 0.00 0.00 0.00 65 1018.2
20260901163816 87 275 4.0 10.0 0.00 0.00 0.00 66 1018.3
20260901163313 87 273 1.0 7.0 0.00 0.00 0.00 66 1018.2
20260901162825 87 101 3.0 7.0 0.00 0.00 0.00 67 1018.1
20260901162317 86 155 3.0 6.0 0.00 0.00 0.00 69 1018.2
20260901161849 86 167 3.0 7.0 0.00 0.00 0.00 68 1018.2
20260901161320 85 159 0.0 12.0 0.00 0.00 0.00 69 1018.2
20260901160812 85 309 4.0 12.0 0.00 0.00 0.00 68 1018.2
20260901160325 86 84 5.0 9.0 0.00 0.00 0.00 66 1018.3
20260901155814 87 120 2.0 9.0 0.00 0.00 0.00 66 1018.3
20260901155346 87 259 4.0 9.0 0.00 0.00 0.00 66 1018.2
20260901154817 86 128 3.0 18.0 0.00 0.00 0.00 67 1018.3
20260901154313 87 90 6.0 18.0 0.00 0.00 0.00 66 1018.3
20260901153825 87 298 7.0 14.0 0.00 0.00 0.00 63 1018.3
20260901153317 88 63 2.0 12.0 0.00 0.00 0.00 65 1018.2
20260901152829 88 310 5.0 10.0 0.00 0.00 0.00 67 1018.3
20260901152341 88 153 4.0 10.0 0.00 0.00 0.00 66 1018.4
20260901151832 88 127 4.0 10.0 0.00 0.00 0.00 66 1018.4
20260901151324 87 126 2.0 11.0 0.00 0.00 0.00 70 1018.5
20260901150816 87 291 4.0 11.0 0.00 0.00 0.00 68 1018.4
20260901150313 86 286 1.0 6.0 0.00 0.00 0.00 71 1018.4
20260901145823 86 170 2.0 9.0 0.00 0.00 0.00 69 1018.4
20260901145315 86 157 7.0 10.0 0.00 0.00 0.00 69 1018.3
20260901144847 85 165 2.0 6.0 0.00 0.00 0.00 71 1018.4
20260901144318 85 61 1.0 8.0 0.00 0.00 0.00 71 1018.4
20260901143830 85 113 2.0 9.0 0.00 0.00 0.00 70 1018.5
20260901143342 85 140 2.0 9.0 0.00 0.00 0.00 70 1018.5
20260901142813 85 137 3.0 6.0 0.00 0.00 0.00 70 1018.5
20260901142326 85 101 2.0 8.0 0.00 0.00 0.00 71 1018.4
20260901141838 84 142 4.0 8.0 0.00 0.00 0.00 71 1018.5
20260901141350 84 186 2.0 5.0 0.00 0.00 0.00 72 1018.5
20260901140824 83 117 3.0 5.0 0.00 0.00 0.00 72 1018.6
20260901140317 83 165 2.0 7.0 0.00 0.00 0.00 73 1018.6
20260901135828 83 170 2.0 7.0 0.00 0.00 0.00 73 1018.6
20260901135320 83 158 4.0 6.0 0.00 0.00 0.00 73 1018.6
20260901134832 82 155 3.0 6.0 0.00 0.00 0.00 75 1018.6
20260901134324 82 139 3.0 6.0 0.00 0.00 0.00 74 1018.6
20260901133815 81 161 3.0 6.0 0.00 0.00 0.00 75 1018.7
20260901133348 81 175 4.0 7.0 0.00 0.00 0.00 76 1018.7
20260901132819 80 171 4.0 7.0 0.00 0.00 0.00 77 1018.7
20260901132314 80 167 4.0 7.0 0.00 0.00 0.00 77 1018.7
20260901131847 79 160 4.0 7.0 0.00 0.00 0.00 78 1018.7
20260901131338 78 167 3.0 6.0 0.00 0.00 0.00 79 1018.8
20260901130850 78 175 2.0 7.0 0.00 0.00 0.00 79 1018.8
20260901130340 78 178 2.0 7.0 0.00 0.00 0.00 78 1018.8
20260901125830 78 149 4.0 7.0 0.00 0.00 0.00 78 1018.8
20260901125343 78 175 3.0 6.0 0.00 0.00 0.00 78 1018.7
20260901124813 78 165 4.0 7.0 0.00 0.00 0.00 78 1018.7
20260901124325 78 173 4.0 7.0 0.00 0.00 0.00 77 1018.8
20260901123818 78 171 4.0 5.0 0.00 0.00 0.00 77 1018.9
20260901123330 78 173 3.0 6.0 0.00 0.00 0.00 78 1018.9
20260901122826 78 175 2.0 6.0 0.00 0.00 0.00 78 1018.9
20260901122318 77 181 3.0 6.0 0.00 0.00 0.00 79 1019.0
20260901121829 77 167 3.0 5.0 0.00 0.00 0.00 79 1019.0
20260901121341 77 179 4.0 6.0 0.00 0.00 0.00 78 1019.0
20260901120832 77 170 3.0 6.0 0.00 0.00 0.00 79 1019.0
20260901120325 76 170 3.0 7.0 0.00 0.00 0.00 79 1018.9
20260901115814 76 183 3.0 7.0 0.00 0.00 0.00 79 1018.9
20260901115326 76 175 3.0 6.0 0.00 0.00 0.00 79 1018.8
20260901114838 76 169 4.0 6.0 0.00 0.00 0.00 79 1018.8
20260901114313 76 169 3.0 6.0 0.00 0.00 0.00 79 1018.7
20260901113826 75 188 4.0 6.0 0.00 0.00 0.00 80 1018.6
20260901113317 75 176 4.0 7.0 0.00 0.00 0.00 80 1018.6
20260901112849 75 180 3.0 7.0 0.00 0.00 0.00 80 1018.5
20260901112320 75 166 4.0 7.0 0.00 0.00 0.00 80 1018.5
20260901111832 75 178 4.0 7.0 0.00 0.00 0.00 80 1018.5
20260901111324 75 174 4.0 8.0 0.00 0.00 0.00 80 1018.4
20260901110816 75 179 4.0 6.0 0.00 0.00 0.00 80 1018.5
20260901110327 75 153 3.0 6.0 0.00 0.00 0.00 80 1018.5
20260901105821 75 176 3.0 7.0 0.00 0.00 0.00 80 1018.5
20260901105333 75 173 3.0 6.0 0.00 0.00 0.00 80 1018.3
20260901104825 75 163 2.0 6.0 0.00 0.00 0.00 79 1018.3
20260901104316 75 169 3.0 6.0 0.00 0.00 0.00 79 1018.3
20260901103829 75 174 3.0 6.0 0.00 0.00 0.00 79 1018.2
20260901103320 75 175 2.0 4.0 0.00 0.00 0.00 78 1018.1
20260901102832 76 169 2.0 5.0 0.00 0.00 0.00 78 1018.1
20260901102324 76 171 3.0 6.0 0.00 0.00 0.00 78 1018.1
20260901101820 76 165 4.0 6.0 0.00 0.00 0.00 78 1018.1
20260901101333 76 164 3.0 5.0 0.00 0.00 0.00 78 1018.1
20260901100824 76 176 3.0 5.0 0.00 0.00 0.00 78 1018.1
20260901100316 76 179 3.0 5.0 0.00 0.00 0.00 78 1018.2
20260901095827 76 171 2.0 6.0 0.00 0.00 0.00 78 1018.2